• In Latvia
  • List of Countries
  • For 7 days
  • Water Temperature
  • Satellite Maps
  • Weather Map
  • Weather Widgets
  • user-avatar
    Login

    Hourly Weather Korfu

    Today, 22 June, Friday

    Time Temperature Precipitation Wind Pressure Humidity
    00:00 +24°C° 0 mm 2 mps 757 mmHg 73%
    01:00 +23°C° 0 mm 2 mps 757 mmHg 73%
    02:00 +23°C° 0.1 mm 2 mps 757 mmHg 73%
    03:00 +21°C° 0.1 mm 2 mps 757 mmHg 74%
    04:00 +21°C° 0.1 mm 2 mps 757 mmHg 74%
    05:00 +23°C° 0 mm 1 mps 757 mmHg 71%
    06:00 +25°C° 0 mm 1 mps 757 mmHg 67%
    07:00 +26°C° 0 mm 1 mps 757 mmHg 64%
    08:00 +27°C° 0 mm 1 mps 757 mmHg 61%
    09:00 +28°C° 0 mm 2 mps 757 mmHg 58%
    10:00 +30°C° 0 mm 2 mps 757 mmHg 54%
    11:00 +30°C° 0.2 mm 3 mps 756 mmHg 55%
    12:00 +30°C° 0.2 mm 3 mps 756 mmHg 56%
    13:00 +30°C° 0.2 mm 3 mps 756 mmHg 57%
    14:00 +30°C° 0.2 mm 3 mps 756 mmHg 59%
    15:00 +29°C° 0.2 mm 3 mps 755 mmHg 62%
    16:00 +29°C° 0.2 mm 3 mps 755 mmHg 64%
    17:00 +28°C° 0.1 mm 3 mps 755 mmHg 70%
    18:00 +26°C° 0.1 mm 2 mps 755 mmHg 75%
    19:00 +25°C° 0.1 mm 2 mps 755 mmHg 81%
    20:00 +24°C° 0 mm 2 mps 755 mmHg 83%
    21:00 +24°C° 0 mm 2 mps 755 mmHg 85%
    22:00 +23°C° 0 mm 2 mps 756 mmHg 87%
    23:00 +23°C° 0 mm 1 mps 756 mmHg 88%

    Tomorrow, 23 June, Saturday

    Time Temperature Precipitation Wind Pressure Humidity
    00:00 +22°C° 0 mm 1 mps 755 mmHg 88%
    01:00 +22°C° 0 mm 1 mps 755 mmHg 89%
    02:00 +22°C° 0 mm 1 mps 755 mmHg 89%
    03:00 +22°C° 0 mm 1 mps 755 mmHg 89%
    04:00 +21°C° 0 mm 1 mps 755 mmHg 89%
    05:00 +23°C° 0.1 mm 2 mps 755 mmHg 83%
    06:00 +24°C° 0.1 mm 2 mps 755 mmHg 77%
    07:00 +26°C° 0.1 mm 2 mps 756 mmHg 71%
    08:00 +26°C° 0.4 mm 2 mps 756 mmHg 70%
    09:00 +27°C° 0.4 mm 2 mps 756 mmHg 68%
    10:00 +27°C° 0.4 mm 2 mps 756 mmHg 67%
    11:00 +27°C° 0.5 mm 2 mps 756 mmHg 67%
    12:00 +27°C° 0.5 mm 2 mps 756 mmHg 67%
    13:00 +28°C° 0.5 mm 2 mps 756 mmHg 68%
    14:00 +28°C° 0.4 mm 3 mps 756 mmHg 68%
    15:00 +28°C° 0.4 mm 3 mps 756 mmHg 68%
    16:00 +27°C° 0.4 mm 3 mps 756 mmHg 67%
    17:00 +27°C° 0.2 mm 4 mps 756 mmHg 72%
    18:00 +26°C° 0.2 mm 4 mps 756 mmHg 76%
    19:00 +25°C° 0.2 mm 4 mps 756 mmHg 80%
    20:00 +23°C° 0 mm 5 mps 756 mmHg 81%
    21:00 +22°C° 0 mm 5 mps 756 mmHg 81%
    22:00 +21°C° 0 mm 5 mps 757 mmHg 82%
    23:00 +21°C° 0 mm 4 mps 757 mmHg 82%

    Day after tomorrow, 24 June, Sunday

    Time Temperature Precipitation Wind Pressure Humidity
    00:00 +21°C° 0 mm 4 mps 757 mmHg 81%
    01:00 +20°C° 0 mm 4 mps 756 mmHg 81%
    02:00 +20°C° 0 mm 4 mps 756 mmHg 79%
    03:00 +20°C° 0 mm 4 mps 756 mmHg 78%
    04:00 +20°C° 0 mm 3 mps 756 mmHg 76%
    05:00 +20°C° 0 mm 3 mps 756 mmHg 72%
    06:00 +21°C° 0 mm 3 mps 756 mmHg 69%
    07:00 +22°C° 0 mm 3 mps 756 mmHg 65%
    08:00 +25°C° 0 mm 2 mps 757 mmHg 61%
    09:00 +27°C° 0 mm 2 mps 757 mmHg 57%
    10:00 +28°C° 0 mm 1 mps 757 mmHg 52%
    11:00 +29°C° 0.1 mm 1 mps 757 mmHg 53%
    12:00 +29°C° 0.1 mm 2 mps 756 mmHg 54%
    13:00 +29°C° 0.1 mm 2 mps 756 mmHg 54%
    14:00 +29°C° 0.2 mm 2 mps 756 mmHg 56%
    15:00 +29°C° 0.2 mm 2 mps 756 mmHg 58%
    16:00 +28°C° 0.2 mm 3 mps 756 mmHg 60%
    17:00 +27°C° 0.2 mm 3 mps 756 mmHg 65%
    18:00 +26°C° 0.2 mm 3 mps 756 mmHg 70%
    19:00 +24°C° 0.2 mm 3 mps 756 mmHg 74%
    20:00 +24°C° 0 mm 3 mps 756 mmHg 75%
    21:00 +22°C° 0 mm 3 mps 756 mmHg 76%
    22:00 +21°C° 0 mm 3 mps 756 mmHg 77%
    23:00 +21°C° 0.3 mm 3 mps 756 mmHg 78%

    25 June, Monday

    Time Temperature Precipitation Wind Pressure Humidity
    00:00 +21°C° 0.3 mm 3 mps 756 mmHg 80%
    01:00 +20°C° 0.3 mm 2 mps 756 mmHg 81%
    02:00 +20°C° 0.5 mm 3 mps 755 mmHg 82%
    03:00 +20°C° 0.5 mm 3 mps 755 mmHg 83%
    04:00 +20°C° 0.5 mm 3 mps 755 mmHg 84%
    05:00 +21°C° 1.2 mm 3 mps 755 mmHg 83%
    06:00 +21°C° 1.2 mm 3 mps 755 mmHg 81%
    07:00 +22°C° 1.2 mm 3 mps 755 mmHg 79%
    08:00 +22°C° 1.8 mm 3 mps 755 mmHg 77%
    09:00 +23°C° 1.8 mm 4 mps 755 mmHg 76%
    10:00 +23°C° 1.8 mm 4 mps 755 mmHg 74%
    11:00 +23°C° 2 mm 4 mps 755 mmHg 76%
    12:00 +22°C° 2 mm 4 mps 755 mmHg 78%
    13:00 +22°C° 2 mm 4 mps 755 mmHg 80%
    14:00 +22°C° 1.5 mm 4 mps 755 mmHg 81%
    15:00 +22°C° 1.5 mm 4 mps 755 mmHg 83%
    16:00 +21°C° 1.5 mm 4 mps 755 mmHg 85%
    17:00 +21°C° 1.3 mm 5 mps 754 mmHg 86%
    18:00 +21°C° 1.3 mm 5 mps 754 mmHg 87%
    19:00 +20°C° 1.3 mm 5 mps 754 mmHg 88%
    20:00 +20°C° 0.5 mm 5 mps 754 mmHg 88%
    21:00 +20°C° 0.5 mm 5 mps 754 mmHg 87%
    22:00 +20°C° 0.5 mm 5 mps 754 mmHg 87%
    23:00 +19°C° 0.5 mm 4 mps 754 mmHg 87%

    26 June, Tuesday

    Time Temperature Precipitation Wind Pressure Humidity
    00:00 +19°C° 0.5 mm 4 mps 753 mmHg 86%
    01:00 +19°C° 0.5 mm 4 mps 753 mmHg 86%
    02:00 +19°C° 0.3 mm 4 mps 753 mmHg 86%
    03:00 +19°C° 0.3 mm 4 mps 752 mmHg 87%
    04:00 +18°C° 0.3 mm 4 mps 752 mmHg 87%
    05:00 +19°C° 0.2 mm 4 mps 752 mmHg 87%
    06:00 +19°C° 0.2 mm 3 mps 752 mmHg 87%
    07:00 +19°C° 0.2 mm 3 mps 752 mmHg 87%
    08:00 +20°C° 0 mm 3 mps 752 mmHg 84%
    09:00 +20°C° 0 mm 3 mps 752 mmHg 82%
    10:00 +21°C° 0 mm 3 mps 752 mmHg 79%
    11:00 +22°C° 0 mm 3 mps 752 mmHg 76%
    12:00 +24°C° 0 mm 3 mps 752 mmHg 72%
    13:00 +24°C° 0 mm 3 mps 752 mmHg 69%
    14:00 +25°C° 0.1 mm 3 mps 752 mmHg 66%
    15:00 +26°C° 0.1 mm 4 mps 752 mmHg 64%
    16:00 +26°C° 0.1 mm 4 mps 751 mmHg 61%
    17:00 +25°C° 0.1 mm 4 mps 752 mmHg 66%
    18:00 +23°C° 0.1 mm 4 mps 752 mmHg 71%
    19:00 +22°C° 0.1 mm 4 mps 752 mmHg 76%
    20:00 +21°C° 0.2 mm 4 mps 752 mmHg 78%
    21:00 +21°C° 0.2 mm 3 mps 752 mmHg 79%
    22:00 +20°C° 0.2 mm 3 mps 752 mmHg 80%
    23:00 +20°C° 0.5 mm 3 mps 752 mmHg 81%

    27 June, Wednesday

    Time Temperature Precipitation Wind Pressure Humidity
    00:00 +20°C° 0.5 mm 3 mps 752 mmHg 81%
    01:00 +20°C° 0.5 mm 3 mps 752 mmHg 82%
    02:00 +20°C° 0.8 mm 3 mps 752 mmHg 83%
    03:00 +20°C° 0.8 mm 3 mps 752 mmHg 84%
    04:00 +19°C° 0.8 mm 3 mps 752 mmHg 85%
    05:00 +20°C° 1 mm 3 mps 752 mmHg 83%
    06:00 +21°C° 1 mm 3 mps 752 mmHg 81%
    07:00 +22°C° 1 mm 3 mps 752 mmHg 78%
    08:00 +22°C° 1 mm 3 mps 752 mmHg 75%
    09:00 +24°C° 1 mm 3 mps 752 mmHg 72%
    10:00 +25°C° 1 mm 3 mps 752 mmHg 69%
    11:00 +25°C° 0.8 mm 2 mps 752 mmHg 71%
    12:00 +25°C° 0.8 mm 2 mps 752 mmHg 72%
    13:00 +25°C° 0.8 mm 2 mps 752 mmHg 74%
    14:00 +24°C° 0.6 mm 2 mps 752 mmHg 76%
    15:00 +24°C° 0.6 mm 2 mps 752 mmHg 79%
    16:00 +24°C° 0.6 mm 2 mps 752 mmHg 81%
    17:00 +23°C° 0.2 mm 2 mps 752 mmHg 83%
    18:00 +23°C° 0.2 mm 2 mps 752 mmHg 84%
    19:00 +21°C° 0.2 mm 2 mps 753 mmHg 85%
    20:00 +21°C° 0 mm 2 mps 753 mmHg 86%
    21:00 +20°C° 0 mm 2 mps 753 mmHg 87%
    22:00 +20°C° 0 mm 2 mps 753 mmHg 87%
    23:00 +20°C° 0 mm 2 mps 753 mmHg 87%
    Show more